Regional Weather Roundup
Issued by NWS Upton, NY

Current Version | Previous Version | Graphics & Text | Print | Product List | Glossary Off
Versions: 1 2 3 4 5 6 7 8 9 10 11 12 13 14 15 16 17 18 19 20 21 22 23 24 25 26 27

000
ASUS41 KOKX 270505
RWROKX

REGIONAL WEATHER ROUNDUP
NATIONAL WEATHER SERVICE NEW YORK NY
100 AM EDT FRI MAY 27 2016

NOTE: "FAIR" INDICATES FEW OR NO CLOUDS BELOW 12,000 FEET WITH NO
SIGNIFICANT WEATHER AND/OR OBSTRUCTIONS TO VISIBILITY.

NYZ071-072-176-178-NJZ106-104-270600-
NEW YORK CITY METRO AREA


CITY           SKY/WX    TMP DP  RH WIND       PRES   REMARKS
CENTRAL PARK   CLOUDY    76  52  43 VRB3      30.07F
LAGUARDIA APRT CLOUDY    71  64  78 S3        30.04F
KENNEDY INTL   PTCLDY    65  61  87 CALM      30.06F
NEWARK/LIBERTY MOCLDY    75  53  46 SE3       30.04F
BRNX BOT. GARD   N/A     68  55  64 SE1       30.05F
TETERBORO      PTCLDY    72  52  49 CALM      30.04S
$$

NYZ177-179-078>081-270600-
LONG ISLAND NEW YORK

CITY           SKY/WX    TMP DP  RH WIND       PRES   REMARKS
FARMINGDALE    PTCLDY    65  59  81 S3        30.06F
ISLIP          PTCLDY    64  58  80 S6        30.07F
SHIRLEY        PTCLDY    63  58  83 S6        30.08F
RIVERHEAD        N/A     63  59  88 CALM      30.06F
WESTHAMPTON    CLEAR     59  56  89 S5        30.09F
EAST HAMPTON   FAIR      59  56  91 S5        30.09S
MONTAUK POINT    N/A     62  58  86 CALM      30.10F
$$

NYZ052-065-067-270600-
HUDSON VALLEY

CITY           SKY/WX    TMP DP  RH WIND       PRES   REMARKS
WHITE PLAINS   CLOUDY    65  55  70 CALM      30.06F
NEWBURGH       CLEAR     70  54  56 S7        30.06S
MONTGOMERY     CLOUDY    67  58  72 CALM      30.05R
POUGHKEEPSIE   CLEAR     68  58  70 CALM      30.04R
ALBANY         MOCLDY    75  54  47 S13       30.02R
$$

NJZ001-105-106-008-010-013-015-019>022-104-270600-
NEW JERSEY

CITY           SKY/WX    TMP DP  RH WIND       PRES   REMARKS
NEWARK/LIBERTY MOCLDY    75  53  46 SE3       30.04F
TETERBORO      PTCLDY    72  52  49 CALM      30.04S
CALDWELL       CLOUDY    69  56  62 CALM      30.06S
MORRISTOWN     PTCLDY    63  54  72 CALM      30.05S
SOMERVILLE     PTCLDY    66  59  78 CALM      30.03S
SUSSEX         CLOUDY    65  60  84 CALM      30.06R
ANDOVER          N/A     66  59  78 CALM      30.07R
TRENTON        CLEAR     71  57  61 S5        30.05S
MILLVILLE      CLEAR     71  61  70 CALM      30.06F
ATLANTIC CITY  CLEAR     69  61  75 S6        30.06F
WRIGHTSTOWN    PTCLDY    69  62  78 SW3       30.04S
TOMS RIVER     PTCLDY    66  57  72 S6        30.07S
BELMAR         CLEAR     70  61  73 S7        30.07F
$$

PAZ047>061-062-071-270600-
EASTERN PENNSYLVANIA

CITY           SKY/WX    TMP DP  RH WIND       PRES   REMARKS
PHILADELPHIA   MOCLDY    75  61  61 SW6       30.06S
ALLENTOWN      CLOUDY    75  58  55 SW5       30.04F
SCRANTON       PTCLDY    73  59  61 NE3       30.05R
$$

CTZ002-004>006-009-010-012-RIZ004-006-007-MAZ004-011-015-270600-
SOUTHERN NEW ENGLAND
 IN CT

CITY           SKY/WX    TMP DP  RH WIND       PRES   REMARKS
BRADLEY INTL   CLOUDY    70  53  54 S9        30.05F
HARTFORD       PTCLDY    70  54  56 CALM      30.06S
DANBURY        CLEAR     70  51  51 CALM      30.08S
WTRBRY/OXFORD    N/A     63  50  63 CALM      30.08F
BRIDGEPORT     CLEAR     67  56  67 CALM      30.06F
MERIDEN        CLEAR     64  55  72 CALM      30.07F
NEW HAVEN      CLEAR     63  56  78 CALM      30.07F
CHESTER        FAIR      64  55  72 CALM      30.08F
GROTON         CLEAR     59  56  89 CALM      30.08F
WILLIMANTIC    CLEAR     64  58  80 CALM      30.08F

 IN RI

CITY           SKY/WX    TMP DP  RH WIND       PRES   REMARKS
PROVIDENCE     CLEAR     61  55  81 S6        30.09S
BLOCK ISLAND   CLEAR     60  56  86 SW13      30.10S
WESTERLY       CLEAR     59  53  80 CALM      30.10S

 IN MA

CITY           SKY/WX    TMP DP  RH WIND       PRES   REMARKS
BOSTON         CLOUDY    58  54  86 SE5       30.08F
WORCESTER      CLOUDY    66  58  75 CALM      30.10F
WESTFIELD      CLOUDY    69  56  62 S5        30.05F
PROVINCETOWN   MOCLDY    60  54  80 SE10      30.12S
NANTUCKET      CLEAR     56  53  90 SE9       30.13S
$$

ANZ330-335-338-340-345-350-353-355-270600-
COASTAL MARINE OBSERVATIONS


STATION/POSITION TIME  SKY/WX   TEMP    WIND        PRES    VSBY  WAVE
                                AIR SEA DIR/SP/G                  HT/PER
                 (UTC)          (F)     (DEG/KT/KT) (MB)    (MI)  (FT/S)
NY HARB ENTRANCE 0350            63 59  190/ 12/ 14 1017.6          2/ 7
20S FIRE ISLAND  0350            60 59  180/  8/ 10 1018.4          2/ 7
GREAT SOUTH BAY  0400            64 68  210/  8/ 10   N/A
23 SSW MONTAUK P 0450            59 57  200/ 10/ 10 1018.4          2/ 7
15 E BARNEGAT LI 0422               60                N/A           3/ 6
HUDSON CANYON    0350            60 56              1019.3          2/ 7
KINGS POINT      0400            69 58              1017.7
EXECUTION ROCKS  NOT AVBL
CENTRAL LI SOUND 0400            65     190/  6/ 10   N/A           1
EASTERN LI SOUND 0400            58 53  140/  2/  4   N/A
ROBBINS REEF     0406            67     110/  3/  4 1017.0
$$


>>>>>>>>>>>>>>>>>>>>>>>>>>>> KEY <<<<<<<<<<<<<<<<<<<<<<<<<<<
>                                                          <
>     SKY/WX - SKY CONDITION/PRESENT WEATHER               <
>     TMP    - TEMPERATURE IN FAHRENHEIT                   <
>     DP     - DEWPOINT IN FAHRENHEIT                      <
>     RH     - RELATIVE HUMIDITY IN PERCENT                <
>     WIND   - DIRECTION AND SPEED IN MPH                  <
>     PRES   - MEAN SEA LEVEL PRESSURE IN INCHES OF HG     <
>     WCI    - WIND CHILL INDEX                            <
>     VSB    - VISIBILITY IN MILES                         <
>     HX     - HEAT INDEX                                  <
>     TC     - TEMPERATURE IN CELSIUS                      <
>     VRB    - VARIABLE WIND DIRECTION                     <
>                                                          <
>>>>>>>>>>>>>>>>>>>>>>>>>>>> KEY <<<<<<<<<<<<<<<<<<<<<<<<<<<






USA.gov is the U.S. government's official web portal to all federal, state and local government web resources and services.